Погода в Алексеево-Дружковке

Украина / Донецкая область     48°34′44″N   37°36′42″E
темп.,
°C
ветер,
м/с
пор.,
м/с
влажн.,
%
обл.,
%
осадки,
мм/ч
давл.,
гПа
погр.,
м
29 мая, вс
вс2900:00+14в118782 0.0 101311
03:00+15вюв118692 0.1 101317
06:00+15юв2392100 1.1 1013126
09:00+20ююз466974 1.1 1013702
12:00+23юз795181 0.1 10131975
15:00+20ссз5570100 1.5 1014736
18:00+19с447080 0.3 1016646
21:00+15ссв368571 0.3 1017158
30 мая, пн
пн3000:00+12св36941 0.0 1017124
03:00+11св36950 0.0 1018115
06:00+12всв368947 0.0 1019182
09:00+19в56675 0.0 1018483
12:00+24вюв45525 0.0 10171278
15:00+26вюв4546100 0.0 10161781
18:00+25в3562100 0.0 1015187
21:00+20в367730 0.0 101682
31 мая, вт
вт3100:00+18вюв37823 0.0 1015107
03:00+17вюв368142 0.0 101589
06:00+18юв37750 0.0 1015184
09:00+24ююв575380 0.0 1014493
12:00+28ююв564249 0.0 10141164
15:00+29ююв4539100 0.0 10141771
18:00+29ю244933 0.0 10131463
21:00+21зсз4674100 0.9 1015127
1 июня, ср
ср100:00+18всв2284100 5.7 101535
03:00+17ссв2390100 7.5 101536
06:00+17ссв369253 0.0 1016186
09:00+22св45729 0.0 1016499
12:00+27св44571 0.0 1016937
15:00+29всв33470 0.0 10151702
18:00+29св34511 0.0 1015743
21:00+22ссв33750 0.0 101634
2 июня, чт
чт200:00+20в1172100 0.0 101511
03:00+19юв116883 0.0 101511
06:00+20с117099 0.0 101612
09:00+25св1155100 0.0 1016340
12:00+29св114210 0.0 10151178
15:00+31ю023360 0.0 10152188
18:00+30с013862 0.0 10151709
21:00+24с377069 0.0 1015168